| time (UTC) | temp F | wind direction | speed knots | gust knots | rain 1hr in | rain 24hr in | rain mn in | humidity % | barometer mb |
| 20260503200026 | 66 | 15 | 2.6 | 12.2 | 0.00 | 0.00 | 0.00 | 41 | 1003.0 |
| 20260503194525 | 66 | 311 | 2.6 | 10.4 | 0.00 | 0.00 | 0.00 | 40 | 1003.2 |
| 20260503193025 | 67 | 88 | 1.7 | 17.4 | 0.00 | 0.00 | 0.00 | 46 | 1003.2 |
| 20260503191522 | 67 | 188 | 1.7 | 12.2 | 0.00 | 0.00 | 0.00 | 45 | 1003.4 |
| 20260503190020 | 66 | 73 | 2.6 | 10.4 | 0.00 | 0.00 | 0.00 | 43 | 1003.6 |
| 20260503184521 | 66 | 239 | 3.5 | 10.4 | 0.00 | 0.00 | 0.00 | 43 | 1003.6 |
| 20260503183020 | 66 | 243 | 3.5 | 11.3 | 0.00 | 0.00 | 0.00 | 45 | 1003.8 |
| 20260503181517 | 65 | 338 | 4.3 | 12.2 | 0.00 | 0.00 | 0.00 | 45 | 1004.0 |
| 20260503180023 | 65 | 28 | 3.5 | 14.8 | 0.00 | 0.00 | 0.00 | 46 | 1004.1 |
| 20260503174514 | 64 | 246 | 3.5 | 15.6 | 0.00 | 0.00 | 0.00 | 44 | 1004.3 |
| 20260503173016 | 64 | 316 | 2.6 | 8.7 | 0.00 | 0.00 | 0.00 | 45 | 1004.4 |
| 20260503171506 | 64 | 28 | 4.3 | 13.0 | 0.00 | 0.00 | 0.00 | 45 | 1004.5 |
| 20260503100104 | 44 | 212 | 0.0 | 0.0 | 0.00 | 0.00 | 0.00 | 77 | 1007.5 |
| 20260503081550 | 47 | 212 | 0.0 | 2.6 | 0.00 | 0.00 | 0.00 | 71 | 1009.0 |
| 20260503071553 | 48 | 213 | 0.9 | 3.5 | 0.00 | 0.00 | 0.00 | 69 | 1009.6 |
| 20260503054528 | 45 | 245 | 0.0 | 1.7 | 0.00 | 0.00 | 0.00 | 71 | 1010.1 |
| 20260503053025 | 46 | 245 | 0.0 | 1.7 | 0.00 | 0.00 | 0.00 | 69 | 1010.3 |
| 20260503051525 | 46 | 245 | 0.0 | 0.9 | 0.00 | 0.00 | 0.00 | 67 | 1010.5 |
| 20260503050017 | 45 | 245 | 0.0 | 1.7 | 0.00 | 0.00 | 0.00 | 67 | 1010.8 |
| 20260503044525 | 45 | 249 | 0.9 | 3.5 | 0.00 | 0.00 | 0.00 | 68 | 1010.8 |
| 20260503043016 | 45 | 126 | 0.0 | 0.9 | 0.00 | 0.00 | 0.00 | 68 | 1010.9 |
| 20260503041515 | 45 | 126 | 0.9 | 1.7 | 0.00 | 0.00 | 0.00 | 68 | 1011.0 |
| 20260503040015 | 45 | 126 | 0.0 | 1.7 | 0.00 | 0.00 | 0.00 | 68 | 1011.2 |
| 20260503034511 | 46 | 126 | 0.0 | 1.7 | 0.00 | 0.00 | 0.00 | 65 | 1011.5 |
| 20260503033010 | 47 | 126 | 0.0 | 0.0 | 0.00 | 0.00 | 0.00 | 64 | 1011.7 |
| 20260503031508 | 48 | 126 | 0.0 | 1.7 | 0.00 | 0.00 | 0.00 | 64 | 1011.9 |
| 20260503030006 | 49 | 126 | 0.0 | 0.9 | 0.00 | 0.00 | 0.00 | 60 | 1012.0 |
| 20260503024504 | 50 | 126 | 0.0 | 0.0 | 0.00 | 0.00 | 0.00 | 55 | 1012.3 |
| 20260503023011 | 50 | 126 | 0.0 | 0.9 | 0.00 | 0.00 | 0.00 | 56 | 1012.4 |
| 20260503021503 | 51 | 126 | 0.0 | 2.6 | 0.00 | 0.00 | 0.00 | 55 | 1012.5 |
| 20260503020002 | 51 | 124 | 0.0 | 1.7 | 0.00 | 0.00 | 0.00 | 53 | 1012.5 |
| 20260503014502 | 52 | 124 | 0.0 | 0.9 | 0.00 | 0.00 | 0.00 | 49 | 1012.5 |
| 20260503013001 | 53 | 124 | 0.0 | 1.7 | 0.00 | 0.00 | 0.00 | 49 | 1012.4 |
| 20260503011608 | 53 | 123 | 0.0 | 2.6 | 0.00 | 0.00 | 0.00 | 46 | 1012.5 |
| 20260503010100 | 54 | 221 | 0.0 | 3.5 | 0.00 | 0.00 | 0.00 | 44 | 1012.8 |
| 20260503004557 | 55 | 220 | 1.7 | 3.5 | 0.00 | 0.00 | 0.00 | 43 | 1012.8 |
| 20260503003104 | 55 | 209 | 2.6 | 6.1 | 0.00 | 0.00 | 0.00 | 41 | 1013.0 |
| 20260503001554 | 56 | 225 | 1.7 | 9.6 | 0.00 | 0.00 | 0.00 | 40 | 1013.1 |
| 20260503000108 | 56 | 324 | 2.6 | 7.8 | 0.00 | 0.00 | 0.00 | 39 | 1013.2 |
| 20260502234551 | 57 | 17 | 0.9 | 7.0 | 0.00 | 0.00 | 0.00 | 38 | 1013.3 |
| 20260502233051 | 57 | 332 | 1.7 | 10.4 | 0.00 | 0.00 | 0.00 | 37 | 1013.5 |
| 20260502231550 | 57 | 13 | 1.7 | 10.4 | 0.00 | 0.00 | 0.00 | 37 | 1013.4 |
| 20260502230051 | 58 | 301 | 2.6 | 13.0 | 0.00 | 0.00 | 0.00 | 33 | 1013.5 |
| 20260502224548 | 59 | 315 | 2.6 | 13.9 | 0.00 | 0.00 | 0.00 | 32 | 1013.5 |
| 20260502223047 | 59 | 211 | 2.6 | 10.4 | 0.00 | 0.00 | 0.00 | 31 | 1013.7 |
| 20260502221546 | 58 | 214 | 2.6 | 11.3 | 0.00 | 0.00 | 0.00 | 35 | 1013.7 |
| 20260502220046 | 58 | 340 | 2.6 | 10.4 | 0.00 | 0.00 | 0.00 | 32 | 1013.9 |
| 20260502214542 | 58 | 257 | 1.7 | 11.3 | 0.00 | 0.00 | 0.00 | 35 | 1014.0 |
| 20260502213041 | 59 | 213 | 5.2 | 13.9 | 0.00 | 0.00 | 0.00 | 31 | 1014.2 |
| 20260502211547 | 58 | 28 | 3.5 | 8.7 | 0.00 | 0.00 | 0.00 | 33 | 1014.3 |
| 20260502210037 | 58 | 11 | 4.3 | 13.9 | 0.00 | 0.00 | 0.00 | 33 | 1014.3 |
| 20260502204536 | 58 | 238 | 3.5 | 11.3 | 0.00 | 0.00 | 0.00 | 34 | 1014.5 |
| 20260502203034 | 58 | 354 | 0.9 | 12.2 | 0.00 | 0.00 | 0.00 | 33 | 1014.7 |
| 20260502201534 | 58 | 338 | 3.5 | 8.7 | 0.00 | 0.00 | 0.00 | 31 | 1015.2 |